Погода в Бершеть

Россия / Пермский край     57°44′00″N   56°22′26″E
темп.,
°C
ветер,
м/с
пор.,
м/с
влажн.,
%
обл.,
%
осадки,
мм/ч
давл.,
гПа
погр.,
м
27 января, ср
ср2723:00−4юз3893100 0.1 1026469
02:00−7ююз499397 0.1 1026334
05:00−10ююз389598 0.1 1026206
08:00−9юз3893100 0.1 1027282
11:00−8ююз4109298 0.1 1026386
14:00−4ююз4990100 0.1 1026518
17:00−4ююз41092100 0.1 1025435
20:00−5ю41292100 0.1 1024550
28 января, чт
чт2823:00−5ююз41391100 0.1 1022543
02:00−6ююз51488100 0.0 1022557
05:00−5ююз61686100 0.0 1021621
08:00−5юз71686100 0.0 1019606
11:00−5юз71686100 0.0 1019637
14:00−4юз71490100 0.1 1019640
17:00−4юз51390100 0.5 1020552
20:00−5юз41093100 0.4 1022436
29 января, пт
пт2923:00−5юз3993100 0.9 1022374
02:00−8ю2595100 0.0 1022127
05:00−10ю2395100 0.0 102257
08:00−11ююв239491 0.0 102237
11:00−10юв249294 0.0 1021107
14:00−6юв3689100 0.0 1020221
17:00−6вюв3791100 0.0 1018187
20:00−6вюв3888100 0.0 1016181
30 января, сб
сб3023:00−5вюв51285100 0.0 1015277
02:00−5вюв61387100 0.0 1014366
05:00−7вюв41092100 0.0 1014273
08:00−7вюв4895100 0.8 1014267
11:00−7юв3795100 1.2 1015302
14:00−5юв489498 0.3 1015463
17:00−4юв5109399 0.4 1014441
20:00−4ююв51193100 0.1 1013550
31 января, вс
вс3123:00−3ююв61194100 0.2 1013558
02:00−3ю51194100 0.2 1012681
05:00−4ю41093100 0.3 1013454
08:00−5ю41092100 0.0 1013317
11:00−5ю31093100 0.0 1013392
14:00−2ю5890100 0.0 1013657
17:00−2ююв61291100 0.1 1011693
20:00−1ю61495100 0.4 1009766